Location: El Frío
(10.0713°N, 67.9111°W)
Time: 18:36:44
(UTC+00:00)

Cosmos 1745 Rocket - Pass Details

Date: 11 December 2025
Orbit: 951 x 998 km, 83.0° (Epoch: 20 January)

Event Time Altitude Azimuth Distance (km) Brightness Sun altitude
Exits shadow 23:51:51 50° 82° (E) 1,189 4.0 -23.8°
Maximum altitude 23:51:58 50° 86° (E) 1,188 4.0 -23.8°
Drops below altitude 10° 23:57:51 10° 160° (SSE) 2,672 6.3 -25.1°
Sets 00:00:25 0° 165° (SSE) 3,620 7.1 -25.7°
